GW1401 Weather Reports


time (UTC)temp
C
wind
direction
speed
KPH
gust
KPH
rain 1hr
cm
rain 24hr
cm
rain mn
cm
humidity
%
barometer
mb
20260905204844 37 331 4.8 9.7 0.00 0.00 0.00 45 1014.7
20260905204341 37 97 1.6 9.7 0.00 0.00 0.00 44 1014.7
20260905203839 38 283 3.2 4.8 0.00 0.00 0.00 44 1014.8
20260905203335 38 21 3.2 3.2 0.00 0.00 0.00 43 1015.0
20260905202831 38 124 0.0 0.0 0.00 0.00 0.00 43 1014.9
20260905202325 38 38 3.2 4.8 0.00 0.00 0.00 45 1014.8
20260905201821 36 141 1.6 1.6 0.00 0.00 0.00 47 1015.1
20260905201316 37 72 3.2 4.8 0.00 0.00 0.00 47 1015.1
20260905200811 37 170 1.6 4.8 0.00 0.00 0.00 47 1015.1
20260905200307 37 138 3.2 4.8 0.00 0.00 0.00 47 1015.1
20260905195804 37 170 3.2 4.8 0.00 0.00 0.00 46 1015.3
20260905195259 37 127 0.0 4.8 0.00 0.00 0.00 46 1015.4
20260905194755 37 12 6.4 11.3 0.00 0.00 0.00 46 1015.5
20260905194255 37 115 1.6 4.8 0.00 0.00 0.00 47 1015.5
20260905193754 36 318 3.2 3.2 0.00 0.00 0.00 47 1015.8
20260905193249 36 97 1.6 4.8 0.00 0.00 0.00 47 1015.8
20260905192744 36 140 3.2 3.2 0.00 0.00 0.00 48 1015.8
20260905192241 36 184 4.8 8.0 0.00 0.00 0.00 47 1015.9
20260905191740 36 153 0.0 1.6 0.00 0.00 0.00 48 1016.1
20260905191239 35 162 4.8 4.8 0.00 0.00 0.00 49 1016.2
20260905190737 35 151 3.2 4.8 0.00 0.00 0.00 49 1016.2
20260905190236 36 167 1.6 4.8 0.00 0.00 0.00 48 1016.2
20260905185736 36 291 1.6 3.2 0.00 0.00 0.00 48 1016.6
20260905185231 35 149 3.2 8.0 0.00 0.00 0.00 49 1016.5
20260905184725 36 140 0.0 1.6 0.00 0.00 0.00 47 1016.6
20260905184224 35 134 1.6 4.8 0.00 0.00 0.00 47 1016.6
20260905183724 35 140 1.6 3.2 0.00 0.00 0.00 49 1016.7
20260905183219 35 338 1.6 8.0 0.00 0.00 0.00 49 1016.8
20260905182719 35 106 0.0 8.0 0.00 0.00 0.00 49 1016.7
20260905182218 35 157 1.6 8.0 0.00 0.00 0.00 48 1016.9
20260905181714 35 120 0.0 4.8 0.00 0.00 0.00 47 1017.0
20260905181213 35 163 1.6 4.8 0.00 0.00 0.00 49 1017.2
20260905180707 35 188 4.8 8.0 0.00 0.00 0.00 48 1017.2
20260905180203 35 165 3.2 4.8 0.00 0.00 0.00 51 1017.2
20260905175702 35 263 4.8 12.9 0.00 0.00 0.00 51 1017.2
20260905175157 34 126 3.2 3.2 0.00 0.00 0.00 50 1017.2
20260905174653 34 150 4.8 9.7 0.00 0.00 0.00 51 1017.2
20260905174148 34 129 4.8 8.0 0.00 0.00 0.00 52 1017.3
20260905173644 34 175 1.6 4.8 0.00 0.00 0.00 50 1017.3
20260905173140 34 275 3.2 8.0 0.00 0.00 0.00 51 1017.4
20260905172639 33 130 4.8 4.8 0.00 0.00 0.00 53 1017.4
20260905172133 33 170 8.0 9.7 0.00 0.00 0.00 53 1017.5
20260905171630 34 201 4.8 4.8 0.00 0.00 0.00 51 1017.5
20260905171125 33 169 1.6 4.8 0.00 0.00 0.00 54 1017.4
20260905170622 33 127 6.4 9.7 0.00 0.00 0.00 55 1017.5
20260905170117 33 329 4.8 9.7 0.00 0.00 0.00 56 1017.5
20260905165611 33 202 3.2 9.7 0.00 0.00 0.00 57 1017.6
20260905165107 33 149 3.2 9.7 0.00 0.00 0.00 57 1017.8
20260905164601 33 145 1.6 9.7 0.00 0.00 0.00 55 1018.0
20260905164055 32 205 1.6 4.8 0.00 0.00 0.00 57 1018.1
20260905163552 33 106 3.2 4.8 0.00 0.00 0.00 56 1018.0
20260905163048 32 136 0.0 3.2 0.00 0.00 0.00 57 1018.0
20260905162544 32 253 4.8 11.3 0.00 0.00 0.00 56 1018.2
20260905162043 32 186 3.2 9.7 0.00 0.00 0.00 57 1018.5
20260905161543 32 224 3.2 4.8 0.00 0.00 0.00 54 1018.5
20260905161041 33 139 1.6 3.2 0.00 0.00 0.00 55 1018.4
20260905160539 32 204 1.6 4.8 0.00 0.00 0.00 56 1018.3
20260905160034 31 286 4.8 4.8 0.00 0.00 0.00 60 1018.2
20260905155534 31 161 4.8 8.0 0.00 0.00 0.00 60 1018.3
20260905155033 32 187 1.6 9.7 0.00 0.00 0.00 59 1018.2
20260905154528 31 145 1.6 9.7 0.00 0.00 0.00 58 1018.2
20260905154024 31 125 6.4 8.0 0.00 0.00 0.00 57 1018.2
20260905153520 31 166 4.8 9.7 0.00 0.00 0.00 57 1018.3
20260905153019 31 123 4.8 4.8 0.00 0.00 0.00 57 1018.5
20260905152519 31 142 1.6 4.8 0.00 0.00 0.00 58 1018.6
20260905152015 31 160 3.2 8.0 0.00 0.00 0.00 59 1018.5
20260905151510 31 157 1.6 9.7 0.00 0.00 0.00 58 1018.7
20260905151005 30 73 1.6 3.2 0.00 0.00 0.00 58 1018.6
20260905150500 31 199 6.4 9.7 0.00 0.00 0.00 57 1018.5
20260905145956 31 149 1.6 4.8 0.00 0.00 0.00 59 1018.4
20260905145451 30 134 0.0 3.2 0.00 0.00 0.00 61 1018.7
20260905144950 30 159 1.6 4.8 0.00 0.00 0.00 59 1018.7
20260905144446 30 111 1.6 4.8 0.00 0.00 0.00 61 1018.8
20260905143945 30 127 0.0 3.2 0.00 0.00 0.00 61 1018.8
20260905143444 30 170 1.6 1.6 0.00 0.00 0.00 62 1018.9
20260905142939 29 128 0.0 1.6 0.00 0.00 0.00 63 1018.8
20260905142438 29 182 1.6 8.0 0.00 0.00 0.00 64 1018.9
20260905141933 29 96 0.0 4.8 0.00 0.00 0.00 68 1019.2
20260905141428 28 125 1.6 8.0 0.00 0.00 0.00 68 1019.2
20260905140924 28 112 1.6 3.2 0.00 0.00 0.00 70 1019.2
20260905140420 28 169 3.2 4.8 0.00 0.00 0.00 70 1019.3
20260905135918 27 124 3.2 4.8 0.00 0.00 0.00 72 1019.1
20260905135414 27 132 3.2 3.2 0.00 0.00 0.00 74 1019.4
20260905134909 27 159 1.6 8.0 0.00 0.00 0.00 77 1019.3
20260905134408 26 136 0.0 0.0 0.00 0.00 0.00 80 1019.5
20260905133903 25 131 1.6 3.2 0.00 0.00 0.00 83 1019.3
20260905133358 25 252 3.2 3.2 0.00 0.00 0.00 83 1019.6
20260905132857 25 158 0.0 4.8 0.00 0.00 0.00 83 1019.5
20260905132352 26 124 3.2 3.2 0.00 0.00 0.00 83 1019.8
20260905131846 26 160 1.6 3.2 0.00 0.00 0.00 82 1019.7
20260905131342 27 179 1.6 3.2 0.00 0.00 0.00 80 1020.0
20260905130837 26 178 3.2 8.0 0.00 0.00 0.00 79 1020.1
20260905130336 26 205 3.2 3.2 0.00 0.00 0.00 81 1020.0
20260905125832 26 137 1.6 8.0 0.00 0.00 0.00 82 1019.7
20260905125326 26 231 3.2 4.8 0.00 0.00 0.00 84 1019.5
20260905124823 25 151 3.2 8.0 0.00 0.00 0.00 85 1019.4
20260905124319 25 126 0.0 1.6 0.00 0.00 0.00 92 1019.7
20260905123813 24 127 1.6 1.6 0.00 0.00 0.00 96 1019.7
20260905123310 24 120 0.0 3.2 0.00 0.00 0.00 97 1019.9
20260905122809 23 109 1.6 3.2 0.00 0.00 0.00 99 1019.5
20260905122309 23 66 0.0 0.0 0.00 0.00 0.00 99 1018.6
20260905121805 23 123 0.0 0.0 0.00 0.00 0.00 99 1018.5
20260905121301 23 120 0.0 0.0 0.00 0.00 0.00 99 1018.1
20260905120759 23 126 0.0 0.0 0.00 0.00 0.00 99 1018.1
20260905120300 23 124 0.0 0.0 0.00 0.00 0.00 99 1017.9
20260905115754 23 149 0.0 0.0 0.00 0.00 0.00 99 1018.0
20260905115249 23 115 0.0 0.0 0.00 0.00 0.00 99 1018.3
20260905114748 23 127 0.0 0.0 0.00 0.00 0.00 99 1018.3
20260905114247 23 116 0.0 0.0 0.00 0.00 0.00 99 1018.3
20260905113746 23 101 0.0 0.0 0.00 0.00 0.00 98 1018.1
20260905113243 23 120 0.0 0.0 0.00 0.00 0.00 98 1018.1
20260905112737 23 127 0.0 0.0 0.00 0.00 0.00 98 1018.0
20260905112232 23 120 0.0 0.0 0.00 0.00 0.00 98 1017.7
20260905111727 23 121 0.0 1.6 0.00 0.00 0.00 98 1017.7
20260905111221 23 121 0.0 3.2 0.00 0.00 0.00 97 1018.2
20260905110720 23 126 0.0 0.0 0.00 0.00 0.00 97 1017.9
20260905110215 23 109 0.0 0.0 0.00 0.00 0.00 97 1017.6
20260905105710 23 112 0.0 0.0 0.00 0.00 0.00 96 1017.6
20260905105209 23 115 0.0 0.0 0.00 0.00 0.00 96 1017.5
20260905104704 23 118 0.0 0.0 0.00 0.00 0.00 96 1017.3
20260905104200 23 123 0.0 0.0 0.00 0.00 0.00 96 1017.1
20260905103655 23 131 0.0 0.0 0.00 0.00 0.00 96 1017.1
20260905103151 23 128 0.0 3.2 0.00 0.00 0.00 96 1017.3
20260905102646 23 132 0.0 0.0 0.00 0.00 0.00 96 1017.2
20260905102143 23 117 0.0 0.0 0.00 0.00 0.00 95 1017.0
20260905101641 23 107 0.0 0.0 0.00 0.00 0.00 95 1016.9
20260905101140 23 124 0.0 0.0 0.00 0.00 0.00 94 1017.1
20260905100636 23 122 0.0 0.0 0.00 0.00 0.00 94 1016.9
20260905100131 23 124 0.0 0.0 0.00 0.00 0.00 94 1016.9
20260905095624 23 121 0.0 0.0 0.00 0.00 0.00 93 1017.1
20260905095120 23 117 0.0 0.0 0.00 0.00 0.00 93 1016.9
20260905094615 23 118 0.0 0.0 0.00 0.00 0.00 92 1016.8
20260905094114 23 119 0.0 0.0 0.00 0.00 0.00 92 1016.9
20260905093614 24 118 0.0 0.0 0.00 0.00 0.00 92 1016.8
20260905093111 24 118 0.0 0.0 0.00 0.00 0.00 91 1016.7
20260905092610 24 118 0.0 0.0 0.00 0.00 0.00 91 1016.6
20260905092107 25 118 0.0 0.0 0.00 0.00 0.00 89 1016.6
20260905091606 25 118 0.0 0.0 0.00 0.00 0.00 88 1016.6
20260905091101 25 118 0.0 0.0 0.00 0.00 0.00 87 1016.5
20260905090601 25 118 0.0 0.0 0.00 0.00 0.00 87 1016.5
20260905090056 25 118 0.0 0.0 0.00 0.00 0.00 85 1016.5
20260905085554 25 118 0.0 0.0 0.00 0.00 0.00 84 1016.2
20260905085050 26 119 0.0 0.0 0.00 0.00 0.00 84 1016.4
20260905084549 26 119 0.0 0.0 0.00 0.00 0.00 83 1016.5
20260905084045 26 115 0.0 0.0 0.00 0.00 0.00 82 1016.5
20260905083539 26 136 0.0 1.6 0.00 0.00 0.00 79 1016.5
20260905083036 26 136 0.0 0.0 0.00 0.00 0.00 80 1016.6
20260905082531 26 118 0.0 3.2 0.00 0.00 0.00 81 1016.7
20260905082027 27 140 0.0 4.8 0.00 0.00 0.00 81 1016.4
20260905081526 27 75 1.6 9.7 0.00 0.00 0.00 83 1016.7
20260905081021 26 26 4.8 9.7 0.00 0.00 0.00 84 1016.6
20260905080520 26 37 4.8 12.9 0.00 0.00 0.00 88 1017.0
20260905080016 25 30 3.2 3.2 0.00 0.00 0.00 94 1016.6
20260905075509 26 123 0.0 0.0 0.00 0.00 0.00 93 1016.2
20260905075009 26 120 0.0 0.0 0.00 0.00 0.00 92 1016.4
20260905074504 26 121 0.0 0.0 0.00 0.00 0.00 92 1016.4
20260905073959 26 128 0.0 0.0 0.00 0.00 0.00 92 1016.4
20260905073454 26 121 0.0 0.0 0.00 0.00 0.00 92 1016.5
20260905072949 25 163 1.6 3.2 0.00 0.00 0.00 95 1016.7
20260905072444 25 152 1.6 1.6 0.00 0.00 0.00 97 1017.0
20260905071940 25 124 0.0 1.6 0.00 0.00 0.00 99 1016.7
20260905071437 24 130 0.0 1.6 0.00 0.00 0.00 99 1017.2
20260905070936 24 94 0.0 1.6 0.00 0.00 0.00 99 1017.0
20260905070432 23 120 0.0 0.0 0.00 0.00 0.00 99 1016.8
20260905065932 23 120 0.0 0.0 0.00 0.00 0.00 99 1016.9
20260905065430 23 120 0.0 0.0 0.00 0.00 0.00 99 1017.0
20260905064926 23 120 0.0 0.0 0.00 0.00 0.00 99 1016.9
20260905064420 23 120 0.0 0.0 0.00 0.00 0.00 99 1017.1
20260905063915 23 120 0.0 0.0 0.00 0.00 0.00 99 1017.0
20260905063410 23 120 0.0 0.0 0.00 0.00 0.00 99 1017.3
20260905062906 23 120 0.0 0.0 0.00 0.00 0.00 99 1017.3
20260905062400 23 120 0.0 0.0 0.00 0.00 0.00 99 1017.3
20260905061855 23 120 0.0 0.0 0.00 0.00 0.00 99 1017.5
20260905061354 23 120 0.0 0.0 0.00 0.00 0.00 99 1017.5
20260905060849 24 120 0.0 0.0 0.00 0.00 0.00 99 1017.6
20260905060346 23 120 0.0 0.0 0.00 0.00 0.00 99 1017.5
20260905055844 24 120 0.0 0.0 0.00 0.00 0.00 99 1017.6
20260905055340 24 120 0.0 0.0 0.00 0.00 0.00 99 1017.6
20260905054839 24 120 0.0 0.0 0.00 0.00 0.00 99 1017.5
20260905054336 24 120 0.0 0.0 0.00 0.00 0.00 99 1017.7
20260905053835 24 120 0.0 0.0 0.00 0.00 0.00 98 1017.7
20260905053336 24 120 0.0 0.0 0.00 0.00 0.00 98 1017.7
20260905052831 24 120 0.0 0.0 0.00 0.00 0.00 98 1017.5
20260905052331 24 120 0.0 0.0 0.00 0.00 0.00 98 1017.6
20260905051830 24 120 0.0 0.0 0.00 0.00 0.00 98 1017.7
20260905051326 24 117 0.0 0.0 0.00 0.00 0.00 98 1017.9
20260905050823 24 117 0.0 0.0 0.00 0.00 0.00 98 1017.9
20260905050313 24 117 0.0 0.0 0.00 0.00 0.00 98 1017.7
20260905045808 25 117 0.0 0.0 0.00 0.00 0.00 97 1017.5
20260905045305 25 117 0.0 0.0 0.00 0.00 0.00 97 1017.7
20260905044759 25 121 0.0 0.0 0.00 0.00 0.00 97 1017.7
20260905044254 24 122 0.0 0.0 0.00 0.00 0.00 97 1017.7
20260905043752 25 114 0.0 0.0 0.00 0.00 0.00 97 1017.9
20260905043247 25 118 0.0 0.0 0.00 0.00 0.00 97 1017.7
20260905042742 25 118 0.0 0.0 0.00 0.00 0.00 96 1017.8
20260905042241 25 118 0.0 0.0 0.00 0.00 0.00 96 1017.6
20260905041737 25 118 0.0 0.0 0.00 0.00 0.00 96 1017.7
20260905041232 25 118 0.0 0.0 0.00 0.00 0.00 96 1017.7
20260905040727 25 113 0.0 0.0 0.00 0.00 0.00 96 1017.7
20260905040226 25 106 0.0 1.6 0.00 0.00 0.00 95 1017.7
20260905035726 25 119 0.0 0.0 0.00 0.00 0.00 95 1017.8
20260905035223 25 119 0.0 0.0 0.00 0.00 0.00 95 1017.8
20260905034719 25 119 0.0 0.0 0.00 0.00 0.00 95 1017.7
20260905034218 25 119 0.0 0.0 0.00 0.00 0.00 94 1017.7
20260905033717 25 119 0.0 0.0 0.00 0.00 0.00 94 1017.7
20260905033213 25 119 0.0 0.0 0.00 0.00 0.00 94 1017.5
20260905032712 25 119 0.0 0.0 0.00 0.00 0.00 94 1017.8
20260905032207 25 119 0.0 0.0 0.00 0.00 0.00 93 1017.8
20260905031703 25 119 0.0 0.0 0.00 0.00 0.00 93 1017.6
20260905031158 25 120 0.0 0.0 0.00 0.00 0.00 93 1017.8
20260905030653 25 119 0.0 0.0 0.00 0.00 0.00 93 1017.7
20260905030149 25 119 0.0 0.0 0.00 0.00 0.00 93 1017.6
20260905025643 25 119 0.0 0.0 0.00 0.00 0.00 92 1017.6
20260905025139 25 119 0.0 0.0 0.00 0.00 0.00 92 1017.9
20260905024635 25 119 0.0 0.0 0.00 0.00 0.00 92 1017.8
20260905024130 26 119 0.0 0.0 0.00 0.00 0.00 91 1017.8
20260905023626 26 118 0.0 0.0 0.00 0.00 0.00 91 1017.8
20260905023125 26 122 0.0 0.0 0.00 0.00 0.00 91 1017.5
20260905022624 26 122 0.0 0.0 0.00 0.00 0.00 90 1017.6
20260905022119 26 122 0.0 0.0 0.00 0.00 0.00 89 1017.7
20260905021614 26 122 0.0 0.0 0.00 0.00 0.00 89 1017.7
20260905021110 26 122 0.0 0.0 0.00 0.00 0.00 89 1017.7
20260905020609 26 122 0.0 0.0 0.00 0.00 0.00 88 1017.5
20260905020104 26 121 0.0 0.0 0.00 0.00 0.00 88 1017.6
20260905015603 26 122 0.0 0.0 0.00 0.00 0.00 88 1017.4
20260905015057 26 122 0.0 0.0 0.00 0.00 0.00 87 1017.6
20260905014551 26 122 0.0 0.0 0.00 0.00 0.00 86 1017.6
20260905014047 26 122 0.0 0.0 0.00 0.00 0.00 86 1017.5
20260905013544 27 122 0.0 0.0 0.00 0.00 0.00 86 1017.5
20260905013039 27 122 0.0 0.0 0.00 0.00 0.00 85 1017.3
20260905012538 27 122 0.0 0.0 0.00 0.00 0.00 84 1017.2
20260905012036 27 122 0.0 0.0 0.00 0.00 0.00 84 1017.2
20260905011531 27 122 0.0 0.0 0.00 0.00 0.00 84 1017.3
20260905011026 27 122 0.0 0.0 0.00 0.00 0.00 84 1017.3
20260905010521 27 122 0.0 0.0 0.00 0.00 0.00 84 1016.9
20260905010018 27 122 0.0 0.0 0.00 0.00 0.00 83 1017.1
20260905005513 28 123 0.0 0.0 0.00 0.00 0.00 82 1017.0
20260905005009 28 123 0.0 0.0 0.00 0.00 0.00 81 1016.9
20260905004508 28 128 0.0 0.0 0.00 0.00 0.00 80 1016.9
20260905004003 28 128 0.0 0.0 0.00 0.00 0.00 80 1016.9
20260905003459 28 128 0.0 0.0 0.00 0.00 0.00 78 1017.0
20260905002954 29 128 0.0 0.0 0.00 0.00 0.00 77 1016.8
20260905002450 30 128 0.0 0.0 0.00 0.00 0.00 75 1016.7
20260905001943 30 128 0.0 0.0 0.00 0.00 0.00 74 1016.7
20260905001438 30 128 0.0 0.0 0.00 0.00 0.00 72 1016.6
20260905000933 31 128 0.0 0.0 0.00 0.00 0.00 71 1016.7
20260905000431 31 128 0.0 0.0 0.00 0.00 0.00 68 1016.7
20260904235924 31 128 0.0 0.0 0.00 0.00 0.00 67 1016.7
20260904235419 31 122 0.0 0.0 0.00 0.00 0.00 65 1016.6
20260904234913 32 106 0.0 1.6 0.00 0.00 0.00 64 1016.6
20260904234408 32 118 0.0 0.0 0.00 0.00 0.00 62 1016.7
20260904233904 33 129 0.0 0.0 0.00 0.00 0.00 61 1016.6
20260904233359 34 108 0.0 0.0 0.00 0.00 0.00 59 1016.7
20260904232856 35 112 0.0 1.6 0.00 0.00 0.00 56 1016.6
20260904232352 36 126 0.0 0.0 0.00 0.00 0.00 52 1016.5
20260904231848 36 109 0.0 1.6 0.00 0.00 0.00 50 1016.4
20260904231343 36 136 0.0 1.6 0.00 0.00 0.00 51 1016.8
20260904230838 36 117 0.0 3.2 0.00 0.00 0.00 50 1016.7
20260904230336 37 34 3.2 3.2 0.00 0.00 0.00 50 1016.8
20260904225831 37 125 0.0 3.2 0.00 0.00 0.00 48 1016.9
20260904225329 37 156 0.0 3.2 0.00 0.00 0.00 48 1017.0
20260904224824 37 193 1.6 1.6 0.00 0.00 0.00 45 1016.8
20260904224320 37 148 0.0 1.6 0.00 0.00 0.00 44 1016.9
20260904223818 37 156 0.0 1.6 0.00 0.00 0.00 46 1016.9
20260904223313 37 68 1.6 3.2 0.00 0.00 0.00 44 1017.1
20260904222810 38 118 1.6 4.8 0.00 0.00 0.00 44 1017.0
20260904222306 37 107 1.6 1.6 0.00 0.00 0.00 44 1017.0
20260904221759 37 26 1.6 4.8 0.00 0.00 0.00 45 1017.0
20260904221259 38 125 3.2 3.2 0.00 0.00 0.00 43 1017.2
20260904220754 38 150 0.0 8.0 0.00 0.00 0.00 45 1017.1
20260904220253 38 348 3.2 3.2 0.00 0.00 0.00 45 1017.0
20260904215749 38 171 3.2 4.8 0.00 0.00 0.00 45 1017.0
20260904215244 38 33 3.2 4.8 0.00 0.00 0.00 44 1017.1
20260904214739 38 92 1.6 3.2 0.00 0.00 0.00 43 1017.0
20260904214235 38 127 1.6 4.8 0.00 0.00 0.00 42 1017.0
20260904213733 38 79 1.6 3.2 0.00 0.00 0.00 42 1017.2
20260904213229 38 140 1.6 3.2 0.00 0.00 0.00 45 1017.3
20260904212725 38 219 4.8 8.0 0.00 0.00 0.00 45 1017.2
20260904212219 38 121 1.6 4.8 0.00 0.00 0.00 44 1017.3
20260904211719 38 30 1.6 4.8 0.00 0.00 0.00 42 1017.3
20260904211214 38 212 1.6 3.2 0.00 0.00 0.00 43 1017.4
20260904210709 38 113 1.6 4.8 0.00 0.00 0.00 44 1017.3
20260904210204 38 39 4.8 8.0 0.00 0.00 0.00 43 1017.3
20260904205700 39 238 1.6 3.2 0.00 0.00 0.00 42 1017.3